This is the latest recevied weather packets stored in our database for station/object OE3PDB-3. If no packets are shown the sender has not sent any weather packets the latest 10 day(s).
| Time | Temp. | Humidity | Pressure | Rain* | Wind** | Luminosity | Snow |
|---|---|---|---|---|---|---|---|
| 1777666849 | 12.22° C | 49% | 1024.9 hPa | 0 mm | - | - | - |
| 1777666249 | 12.22° C | 50% | 1024.9 hPa | 0 mm | - | - | - |
| 1777665649 | 12.22° C | 49% | 1024.8 hPa | 0 mm | - | - | - |
| 1777665049 | 12.22° C | 49% | 1024.9 hPa | 0 mm | - | - | - |
| 1777664449 | 12.78° C | 48% | 1024.9 hPa | 0 mm | - | - | - |
| 1777663849 | 12.78° C | 48% | 1024.8 hPa | 0 mm | - | - | - |
| 1777663249 | 12.78° C | 48% | 1024.8 hPa | 0 mm | - | - | - |
| 1777662649 | 13.33° C | 48% | 1024.8 hPa | 0 mm | - | - | - |
| 1777662049 | 13.33° C | 47% | 1024.8 hPa | 0 mm | - | - | - |
| 1777661449 | 13.89° C | 46% | 1024.5 hPa | 0 mm | - | - | - |
| 1777660849 | 13.89° C | 45% | 1024.7 hPa | 0 mm | - | - | - |
| 1777660249 | 14.44° C | 44% | 1024.6 hPa | 0 mm | - | - | - |
| 1777659649 | 15° C | 43% | 1024.4 hPa | 0 mm | - | - | - |
| 1777659049 | 15.56° C | 43% | 1024.3 hPa | 0 mm | - | - | - |
| 1777658449 | 16.11° C | 41% | 1024.4 hPa | 0 mm | - | - | - |
| 1777657849 | 16.67° C | 40% | 1024.3 hPa | 0 mm | - | - | - |
| 1777657249 | 17.78° C | 39% | 1024.2 hPa | 0 mm | - | - | - |
| 1777656649 | 18.33° C | 37% | 1024.2 hPa | 0 mm | - | - | - |
| 1777656049 | 18.89° C | 36% | 1024.2 hPa | 0 mm | - | - | - |
| 1777655449 | 18.89° C | 36% | 1024.2 hPa | 0 mm | - | - | - |
| 1777654849 | 19.44° C | 35% | 1024.4 hPa | 0 mm | - | - | - |
| 1777654249 | 20° C | 34% | 1024.4 hPa | 0 mm | - | - | - |
| 1777653649 | 20.56° C | 33% | 1024.4 hPa | 0 mm | - | - | - |
| 1777653049 | 21.11° C | 33% | 1024.4 hPa | 0 mm | - | - | - |
| 1777652449 | 22.22° C | 32% | 1024.4 hPa | 0 mm | - | - | - |
* Rain latest hour (hover to see other rain measurements)
** Current wind speed in m/s (hover to see current wind gust speed)